This is the latest recevied weather packets stored in our database for station/object KJ7HSW. If no packets are shown the sender has not sent any weather packets the latest 10 day(s).
| Time | Temp. | Humidity | Pressure | Rain* | Wind** | Luminosity | Snow |
|---|---|---|---|---|---|---|---|
| 1777387608 | 10.56° C | 72% | 1021.1 hPa | 0 mm | - | 35 W/m² | - |
| 1777387304 | 10.56° C | 72% | 1021 hPa | 0 mm | - | 38 W/m² | - |
| 1777386999 | 10.56° C | 72% | 1021 hPa | 0 mm | - | 40 W/m² | - |
| 1777386697 | 10.56° C | 71% | 1020.9 hPa | 0 mm | - | 40 W/m² | - |
| 1777386393 | 10.56° C | 71% | 1020.8 hPa | 0 mm | - | 38 W/m² | - |
| 1777386091 | 10.56° C | 71% | 1020.7 hPa | 0 mm | - | 36 W/m² | - |
| 1777385787 | 10.56° C | 71% | 1020.5 hPa | 0 mm | - | 36 W/m² | - |
| 1777385484 | 10.56° C | 70% | 1020.6 hPa | 0 mm | - | 36 W/m² | - |
| 1777385181 | 10.56° C | 71% | 1020.4 hPa | 0 mm | - | 34 W/m² | - |
| 1777384877 | 10.56° C | 71% | 1020.4 hPa | 0 mm | - | 28 W/m² | - |
| 1777384575 | 10.56° C | 70% | 1020.5 hPa | 0 mm | - | 25 W/m² | - |
| 1777384275 | 10.56° C | 70% | 1020.3 hPa | 0 mm | - | 23 W/m² | - |
| 1777383970 | 10.56° C | 70% | 1020.3 hPa | 0 mm | - | 21 W/m² | - |
| 1777383666 | 10.56° C | 70% | 1020.3 hPa | 0 mm | - | 16 W/m² | - |
| 1777383364 | 10.56° C | 70% | 1020.3 hPa | 0 mm | - | 11 W/m² | - |
| 1777383059 | 10.56° C | 69% | 1020.1 hPa | 0 mm | - | 8 W/m² | - |
| 1777382756 | 10.56° C | 69% | 1020.1 hPa | 0 mm | - | 6 W/m² | - |
| 1777382452 | 10.56° C | 69% | 1020.2 hPa | 0 mm | - | 5 W/m² | - |
| 1777382148 | 10.56° C | 69% | 1020 hPa | 0 mm | - | 5 W/m² | - |
| 1777381845 | 10.56° C | 69% | 1019.9 hPa | 0 mm | - | 4 W/m² | - |
| 1777381544 | 10.56° C | 70% | 1019.6 hPa | 0 mm | - | 3 W/m² | - |
| 1777381239 | 10.56° C | 71% | 1019.8 hPa | 0 mm | - | 2 W/m² | - |
| 1777380938 | 10.56° C | 71% | 1019.8 hPa | 0 mm | - | 2 W/m² | - |
| 1777380634 | 10.56° C | 70% | 1019.8 hPa | 0 mm | - | 1 W/m² | - |
| 1777380330 | 10.56° C | 68% | 1019.6 hPa | 0 mm | - | 1 W/m² | - |
* Rain latest hour (hover to see other rain measurements)
** Current wind speed in m/s (hover to see current wind gust speed)